WXM80 ListenWXM80 Stop

You find our weather info also at:

UK Metoffice

WeatherCloud

Weather Underground

Northeastern Weather Network

AWEKAS

Citizen Weather Observer Program (CWOP)

HAMweather, WeatherForYou, PWS Weather


Weather Underground History page Text

Daily Summary for October 29, 2016 Units:  English    Metric   Both
« Previous Day
Next Day »
Daily Weekly Monthly Yearly Custom
  High: Low: Average:
Temperature: 64.7 °F 40.3 °F 52.3 °F
Dew Point: 54.1 °F 36.4 °F 43.2 °F
Humidity: 89 % 53 % 72 %
Wind Speed: 9.6 mph 0.0 mph 2.8 mph
Wind Gust: 21.0 mph - -
Wind:- - WSW
Pressure: 30.18 in 29.85 in -
Precipitation: 0.00 in    
Historical Graphs
 
 
Tabular Data for October 29, 2016
Time Temperature Dew Point Pressure Wind Wind Speed Wind Gust Humidity Rainfall Rate (Hourly)
00:00 44.5 °F 37.4 °F 30.16 in North 4.7 mph 9.2 mph 76 % 0.00 in
00:05 44.5 °F 37.7 °F 30.17 in NNW 5.0 mph 16.0 mph 77 % 0.00 in
00:10 44.5 °F 37.4 °F 30.17 in NNW 5.0 mph 14.0 mph 76 % 0.00 in
00:15 44.5 °F 37.7 °F 30.17 in NNW 5.0 mph 13.0 mph 77 % 0.00 in
00:20 44.5 °F 37.7 °F 30.17 in North 5.0 mph 12.0 mph 77 % 0.00 in
00:25 44.4 °F 37.6 °F 30.17 in NNW 5.0 mph 14.0 mph 77 % 0.00 in
00:30 44.4 °F 37.6 °F 30.17 in North 5.5 mph 12.0 mph 77 % 0.00 in
00:40 44.3 °F 37.5 °F 30.17 in NNW 3.0 mph 10.0 mph 77 % 0.00 in
00:45 44.2 °F 37.5 °F 30.17 in NW 5.0 mph 13.0 mph 77 % 0.00 in
00:50 44.2 °F 37.4 °F 30.17 in NW 3.0 mph 8.0 mph 77 % 0.00 in
00:55 44.1 °F 37.7 °F 30.17 in North 2.0 mph 6.0 mph 78 % 0.00 in
01:00 44.1 °F 37.3 °F 30.17 in NW 2.8 mph 8.1 mph 77 % 0.00 in
01:05 44.1 °F 37.7 °F 30.16 in NW 1.0 mph 9.0 mph 78 % 0.00 in
01:10 44.0 °F 37.6 °F 30.16 in NNW 1.0 mph 8.0 mph 78 % 0.00 in
01:15 44.0 °F 37.3 °F 30.16 in NW 2.6 mph 6.0 mph 77 % 0.00 in
01:20 43.9 °F 37.2 °F 30.16 in WNW 3.0 mph 12.0 mph 77 % 0.00 in
01:25 43.8 °F 37.4 °F 30.16 in WNW 1.0 mph 8.0 mph 78 % 0.00 in
01:30 43.8 °F 37.1 °F 30.16 in NW 5.0 mph 8.0 mph 77 % 0.00 in
01:35 43.7 °F 37.3 °F 30.16 in NNW 2.0 mph 9.0 mph 78 % 0.00 in
01:40 43.7 °F 37.3 °F 30.16 in NW 2.0 mph 8.0 mph 78 % 0.00 in
01:45 43.7 °F 37.3 °F 30.17 in NW 1.0 mph 6.0 mph 78 % 0.00 in
01:50 43.6 °F 37.2 °F 30.17 in NNW 2.0 mph 8.0 mph 78 % 0.00 in
01:55 43.6 °F 37.5 °F 30.17 in NW 3.0 mph 9.0 mph 79 % 0.00 in
02:00 43.5 °F 37.4 °F 30.17 in NNW 2.5 mph 7.0 mph 79 % 0.00 in
02:05 43.5 °F 37.4 °F 30.17 in NW 2.0 mph 12.0 mph 79 % 0.00 in
02:10 43.5 °F 37.4 °F 30.17 in NW 2.0 mph 8.0 mph 79 % 0.00 in
02:15 43.5 °F 37.4 °F 30.17 in NNW 1.0 mph 8.0 mph 79 % 0.00 in
02:20 43.4 °F 37.3 °F 30.17 in Calm   9.0 mph 79 % 0.00 in
02:25 43.4 °F 37.3 °F 30.16 in NW 1.0 mph 9.0 mph 79 % 0.00 in
02:30 43.3 °F 37.2 °F 30.16 in Calm   4.0 mph 79 % 0.00 in
02:35 43.3 °F 37.2 °F 30.16 in NW 1.0 mph 4.0 mph 79 % 0.00 in
02:40 43.2 °F 37.1 °F 30.16 in WNW 1.0 mph 5.0 mph 79 % 0.00 in
02:45 43.1 °F 37.0 °F 30.17 in NW 2.0 mph 8.0 mph 79 % 0.00 in
02:50 43.0 °F 36.9 °F 30.17 in NNW 1.0 mph 5.0 mph 79 % 0.00 in
02:55 42.9 °F 37.2 °F 30.17 in NNW 2.0 mph 7.0 mph 80 % 0.00 in
03:00 42.9 °F 37.2 °F 30.17 in NW 1.0 mph 3.5 mph 80 % 0.00 in
03:05 42.8 °F 37.1 °F 30.17 in NW 1.0 mph 7.0 mph 80 % 0.00 in
03:10 42.7 °F 37.0 °F 30.17 in NNW 1.0 mph 6.0 mph 80 % 0.00 in
03:15 42.6 °F 36.9 °F 30.17 in NNW 1.0 mph 7.0 mph 80 % 0.00 in
03:20 42.5 °F 36.8 °F 30.17 in NW 2.2 mph 6.0 mph 80 % 0.00 in
03:25 42.5 °F 36.8 °F 30.17 in NNW 2.0 mph 7.0 mph 80 % 0.00 in
03:30 42.5 °F 36.8 °F 30.17 in NNW 1.0 mph 5.0 mph 80 % 0.00 in
03:35 42.5 °F 36.8 °F 30.16 in NW 0.2 mph 5.8 mph 80 % 0.00 in
03:40 42.4 °F 36.7 °F 30.16 in NNW 2.0 mph 8.0 mph 80 % 0.00 in
03:45 42.4 °F 36.7 °F 30.16 in NNW 5.0 mph 9.0 mph 80 % 0.00 in
03:50 42.4 °F 36.7 °F 30.16 in NW 1.0 mph 6.0 mph 80 % 0.00 in
03:55 42.4 °F 36.7 °F 30.15 in NW 1.0 mph 6.0 mph 80 % 0.00 in
04:00 42.3 °F 36.6 °F 30.15 in WNW 0.8 mph 3.0 mph 80 % 0.00 in
04:05 42.3 °F 36.9 °F 30.15 in WNW 0.5 mph 2.3 mph 81 % 0.00 in
04:11 42.3 °F 36.9 °F 30.16 in North 1.2 mph 3.5 mph 81 % 0.00 in
04:16 42.2 °F 37.1 °F 30.16 in North 1.6 mph 3.5 mph 82 % 0.00 in
04:21 42.2 °F 37.1 °F 30.17 in NW 1.4 mph 3.5 mph 82 % 0.00 in
04:26 42.1 °F 37.0 °F 30.18 in NW 1.2 mph 3.5 mph 82 % 0.00 in
04:31 42.0 °F 36.9 °F 30.18 in WNW 2.3 mph 4.6 mph 82 % 0.00 in
04:36 41.9 °F 36.8 °F 30.18 in North 1.4 mph 5.8 mph 82 % 0.00 in
04:41 41.9 °F 37.1 °F 30.17 in NNE 2.5 mph 5.8 mph 83 % 0.00 in
04:46 42.0 °F 37.2 °F 30.17 in NNW 2.6 mph 5.0 mph 83 % 0.00 in
04:51 41.9 °F 37.1 °F 30.17 in North 2.7 mph 5.0 mph 83 % 0.00 in
04:57 41.9 °F 37.1 °F 30.17 in NNE 2.5 mph 5.0 mph 83 % 0.00 in
05:02 41.9 °F 37.1 °F 30.16 in NNW 0.9 mph 5.0 mph 83 % 0.00 in
05:07 41.9 °F 37.1 °F 30.17 in WNW 1.0 mph 2.3 mph 83 % 0.00 in
05:12 41.8 °F 37.0 °F 30.16 in NNE 2.6 mph 4.6 mph 83 % 0.00 in
05:17 41.8 °F 37.0 °F 30.16 in NNE 0.9 mph 3.5 mph 83 % 0.00 in
05:22 41.7 °F 36.9 °F 30.17 in NNW 0.7 mph 2.3 mph 83 % 0.00 in
05:27 41.7 °F 36.9 °F 30.17 in WNW 0.3 mph 2.3 mph 83 % 0.00 in
05:32 41.7 °F 36.9 °F 30.17 in NNW 0.3 mph 2.3 mph 83 % 0.00 in
05:37 41.6 °F 36.8 °F 30.16 in NNE 1.4 mph 3.0 mph 83 % 0.00 in
05:42 41.5 °F 36.7 °F 30.16 in Calm     83 % 0.00 in
05:48 41.5 °F 37.0 °F 30.15 in Calm     84 % 0.00 in
05:53 41.4 °F 36.9 °F 30.16 in NNW 0.1 mph 1.2 mph 84 % 0.00 in
05:58 41.4 °F 36.9 °F 30.16 in Calm     84 % 0.00 in
06:03 41.3 °F 36.8 °F 30.16 in Calm     84 % 0.00 in
06:08 41.1 °F 36.6 °F 30.16 in Calm     84 % 0.00 in
06:13 41.0 °F 36.5 °F 30.16 in WNW 0.3 mph 2.3 mph 84 % 0.00 in
06:18 40.9 °F 36.4 °F 30.16 in WNW 0.8 mph 2.0 mph 84 % 0.00 in
06:23 40.8 °F 36.6 °F 30.16 in WNW 1.4 mph 2.3 mph 85 % 0.00 in
06:28 40.7 °F 36.5 °F 30.15 in WSW 0.1 mph 3.5 mph 85 % 0.00 in
06:33 40.6 °F 36.4 °F 30.15 in WSW 0.4 mph 2.3 mph 85 % 0.00 in
06:39 40.5 °F 36.6 °F 30.15 in Calm   1.2 mph 86 % 0.00 in
06:44 40.4 °F 36.5 °F 30.14 in WSW 0.9 mph 3.5 mph 86 % 0.00 in
06:49 40.4 °F 36.5 °F 30.15 in WNW 1.4 mph 3.5 mph 86 % 0.00 in
06:54 40.3 °F 36.4 °F 30.15 in West 0.5 mph 3.5 mph 86 % 0.00 in
06:59 40.3 °F 36.7 °F 30.15 in WSW 1.0 mph 3.0 mph 87 % 0.00 in
07:04 40.3 °F 36.7 °F 30.15 in SW 1.1 mph 2.3 mph 87 % 0.00 in
07:09 40.4 °F 36.8 °F 30.14 in Calm     87 % 0.00 in
07:14 40.4 °F 36.8 °F 30.14 in Calm     87 % 0.00 in
07:19 40.4 °F 36.8 °F 30.15 in WSW 0.3 mph 1.0 mph 87 % 0.00 in
07:24 40.4 °F 36.8 °F 30.15 in WSW 0.2 mph 1.0 mph 87 % 0.00 in
07:30 40.3 °F 36.7 °F 30.15 in West 1.3 mph 3.5 mph 87 % 0.00 in
07:35 40.3 °F 36.7 °F 30.15 in WNW 1.1 mph 2.3 mph 87 % 0.00 in
07:40 40.3 °F 37.0 °F 30.16 in West 1.8 mph 3.5 mph 88 % 0.00 in
07:45 40.4 °F 37.1 °F 30.16 in West 2.1 mph 5.0 mph 88 % 0.00 in
07:50 40.5 °F 37.2 °F 30.16 in Calm     88 % 0.00 in
07:55 40.6 °F 37.6 °F 30.15 in SW 1.0 mph 3.0 mph 89 % 0.00 in
08:00 40.7 °F 37.7 °F 30.15 in South 0.8 mph 1.2 mph 89 % 0.00 in
08:05 40.9 °F 37.9 °F 30.15 in West 0.9 mph 2.3 mph 89 % 0.00 in
08:10 41.0 °F 38.0 °F 30.16 in WSW 2.9 mph 4.6 mph 89 % 0.00 in
08:15 41.2 °F 38.2 °F 30.16 in WSW 0.4 mph 2.0 mph 89 % 0.00 in
08:20 41.3 °F 38.3 °F 30.16 in SW 1.8 mph 3.5 mph 89 % 0.00 in
08:25 41.5 °F 38.5 °F 30.15 in SW 1.3 mph 4.0 mph 89 % 0.00 in
08:30 41.6 °F 38.6 °F 30.15 in WSW 1.0 mph 3.0 mph 89 % 0.00 in
08:35 41.8 °F 38.7 °F 30.15 in West 2.0 mph 3.0 mph 89 % 0.00 in
08:40 41.9 °F 38.9 °F 30.14 in WSW 2.0 mph 4.0 mph 89 % 0.00 in
08:45 42.1 °F 39.1 °F 30.14 in SW 2.0 mph 5.0 mph 89 % 0.00 in
08:50 42.2 °F 38.9 °F 30.14 in SW 1.0 mph 4.0 mph 88 % 0.00 in
08:55 42.4 °F 39.1 °F 30.15 in SW 2.0 mph 6.0 mph 88 % 0.00 in
09:00 42.6 °F 39.3 °F 30.15 in WSW 1.2 mph 2.3 mph 88 % 0.00 in
09:06 42.9 °F 39.3 °F 30.15 in WNW 0.7 mph 6.9 mph 87 % 0.00 in
09:11 43.2 °F 39.6 °F 30.15 in WSW 1.4 mph 3.0 mph 87 % 0.00 in
09:16 43.6 °F 39.7 °F 30.14 in WNW 1.0 mph 3.5 mph 86 % 0.00 in
09:21 44.0 °F 39.8 °F 30.15 in WSW 3.6 mph 5.8 mph 85 % 0.00 in
09:26 44.3 °F 39.8 °F 30.14 in SW 1.9 mph 4.6 mph 84 % 0.00 in
09:31 44.6 °F 39.8 °F 30.13 in WNW 0.2 mph 1.2 mph 83 % 0.00 in
09:36 45.0 °F 40.1 °F 30.14 in West 1.0 mph 3.0 mph 83 % 0.00 in
09:41 45.4 °F 40.5 °F 30.13 in Calm   1.2 mph 83 % 0.00 in
09:46 45.8 °F 40.3 °F 30.13 in WSW 0.8 mph 3.5 mph 81 % 0.00 in
09:51 46.2 °F 40.4 °F 30.12 in SE 0.8 mph 2.3 mph 80 % 0.00 in
09:57 46.6 °F 39.8 °F 30.12 in Calm   2.3 mph 77 % 0.00 in
10:02 46.8 °F 39.6 °F 30.12 in Calm     76 % 0.00 in
10:07 47.0 °F 39.8 °F 30.12 in Calm     76 % 0.00 in
10:12 47.3 °F 39.4 °F 30.11 in SE 1.2 mph 2.3 mph 74 % 0.00 in
10:17 47.6 °F 40.1 °F 30.11 in WSW 0.3 mph 2.3 mph 75 % 0.00 in
10:22 48.1 °F 40.5 °F 30.11 in SSE 0.5 mph 4.0 mph 75 % 0.00 in
10:27 48.8 °F 40.9 °F 30.10 in SSW 1.0 mph 3.5 mph 74 % 0.00 in
10:32 49.3 °F 39.9 °F 30.10 in SW 1.2 mph 2.3 mph 70 % 0.00 in
10:38 50.1 °F 40.7 °F 30.10 in WSW 0.1 mph 3.5 mph 70 % 0.00 in
10:43 50.7 °F 41.3 °F 30.10 in Calm   2.3 mph 70 % 0.00 in
10:48 51.4 °F 40.0 °F 30.09 in SW 3.6 mph 9.0 mph 65 % 0.00 in
10:53 51.8 °F 41.2 °F 30.09 in West 1.2 mph 5.0 mph 67 % 0.00 in
10:58 52.0 °F 40.6 °F 30.08 in SE 0.4 mph 4.6 mph 65 % 0.00 in
11:03 52.3 °F 42.0 °F 30.08 in SSW 0.6 mph 1.2 mph 68 % 0.00 in
11:08 52.5 °F 41.1 °F 30.08 in SSW 0.2 mph 3.5 mph 65 % 0.00 in
11:13 52.7 °F 41.3 °F 30.08 in SW 3.2 mph 7.0 mph 65 % 0.00 in
11:18 52.8 °F 41.4 °F 30.08 in WSW 1.1 mph 4.6 mph 65 % 0.00 in
11:23 53.0 °F 40.7 °F 30.07 in South 0.3 mph 3.5 mph 63 % 0.00 in
11:29 53.2 °F 40.9 °F 30.07 in SSW 1.3 mph 5.8 mph 63 % 0.00 in
11:34 53.4 °F 41.1 °F 30.07 in SSW 1.3 mph 4.6 mph 63 % 0.00 in
11:39 53.8 °F 42.3 °F 30.06 in WSW 2.4 mph 5.8 mph 65 % 0.00 in
11:44 54.2 °F 40.6 °F 30.06 in South 0.7 mph 3.5 mph 60 % 0.00 in
11:49 54.5 °F 40.9 °F 30.06 in SSW 0.5 mph 2.3 mph 60 % 0.00 in
11:54 54.7 °F 40.6 °F 30.05 in South 2.8 mph 6.9 mph 59 % 0.00 in
11:59 54.8 °F 41.2 °F 30.05 in West 1.0 mph 3.5 mph 60 % 0.00 in
12:04 55.0 °F 41.4 °F 30.04 in South 1.6 mph 3.5 mph 60 % 0.00 in
12:09 55.2 °F 42.4 °F 30.04 in SSW 1.4 mph 3.0 mph 62 % 0.00 in
12:14 55.3 °F 42.9 °F 30.03 in WSW 0.8 mph 3.5 mph 63 % 0.00 in
12:20 55.7 °F 42.9 °F 30.03 in WSW 4.2 mph 6.9 mph 62 % 0.00 in
12:25 56.0 °F 43.6 °F 30.03 in SSW 0.7 mph 6.0 mph 63 % 0.00 in
12:30 56.3 °F 43.0 °F 30.02 in WSW 5.2 mph 10.4 mph 61 % 0.00 in
12:35 56.5 °F 42.3 °F 30.02 in SW 6.3 mph 9.2 mph 59 % 0.00 in
12:40 56.7 °F 42.1 °F 30.01 in WSW 1.6 mph 3.5 mph 58 % 0.00 in
12:45 57.0 °F 42.8 °F 30.01 in SSW 6.3 mph 10.4 mph 59 % 0.00 in
12:50 57.1 °F 42.5 °F 30.00 in WSW 6.4 mph 11.5 mph 58 % 0.00 in
12:55 57.5 °F 43.3 °F 29.99 in SSW 3.2 mph 4.0 mph 59 % 0.00 in
13:00 57.7 °F 42.1 °F 29.99 in SSW 5.2 mph 8.0 mph 56 % 0.00 in
13:05 57.9 °F 41.8 °F 29.99 in SW 6.0 mph 13.0 mph 55 % 0.00 in
13:10 57.9 °F 40.9 °F 29.99 in SW 6.0 mph 12.0 mph 53 % 0.00 in
13:15 58.0 °F 41.4 °F 29.98 in SW 5.0 mph 7.0 mph 54 % 0.00 in
13:20 58.0 °F 41.4 °F 29.98 in SW 7.0 mph 12.0 mph 54 % 0.00 in
13:25 58.1 °F 41.5 °F 29.98 in SW 7.0 mph 15.0 mph 54 % 0.00 in
13:30 58.2 °F 41.7 °F 29.97 in SW 6.0 mph 18.0 mph 54 % 0.00 in
13:35 58.5 °F 41.9 °F 29.96 in SW 8.0 mph 20.0 mph 54 % 0.00 in
13:45 59.0 °F 42.4 °F 29.96 in SSW 7.0 mph 13.0 mph 54 % 0.00 in
13:50 59.4 °F 42.3 °F 29.97 in SSW 9.0 mph 21.0 mph 53 % 0.00 in
13:55 59.8 °F 44.1 °F 29.96 in SSW 5.0 mph 14.0 mph 56 % 0.00 in
14:00 60.1 °F 44.3 °F 29.95 in NW 7.5 mph 12.0 mph 56 % 0.00 in
14:05 60.5 °F 44.2 °F 29.95 in SW 5.0 mph 16.0 mph 55 % 0.00 in
14:10 60.6 °F 43.9 °F 29.95 in SW 6.0 mph 15.0 mph 54 % 0.00 in
14:15 60.7 °F 43.5 °F 29.95 in SW 7.0 mph 18.0 mph 53 % 0.00 in
14:20 60.6 °F 43.9 °F 29.94 in SW 8.0 mph 15.0 mph 54 % 0.00 in
14:25 60.4 °F 43.7 °F 29.94 in SSW 3.0 mph 17.0 mph 54 % 0.00 in
14:30 60.5 °F 44.7 °F 29.93 in SW 1.0 mph 13.0 mph 56 % 0.00 in
14:35 60.7 °F 44.4 °F 29.93 in SW 6.0 mph 10.0 mph 55 % 0.00 in
14:40 60.7 °F 43.9 °F 29.93 in SW 3.0 mph 12.0 mph 54 % 0.00 in
14:45 60.6 °F 44.3 °F 29.93 in WSW 6.3 mph 8.1 mph 55 % 0.00 in
14:50 60.4 °F 44.1 °F 29.93 in SW 6.0 mph 13.0 mph 55 % 0.00 in
14:55 60.2 °F 43.9 °F 29.92 in SW 1.0 mph 12.0 mph 55 % 0.00 in
15:00 59.9 °F 43.7 °F 29.92 in SW 1.3 mph 8.1 mph 55 % 0.00 in
15:06 59.9 °F 44.6 °F 29.91 in WSW 0.4 mph 6.9 mph 57 % 0.00 in
15:11 59.9 °F 45.5 °F 29.91 in SW 1.4 mph 4.0 mph 59 % 0.00 in
15:16 60.0 °F 45.2 °F 29.90 in West 3.3 mph 6.9 mph 58 % 0.00 in
15:21 60.1 °F 45.3 °F 29.90 in SSW 2.7 mph 6.9 mph 58 % 0.00 in
15:26 60.4 °F 46.4 °F 29.90 in SSW 5.3 mph 9.2 mph 60 % 0.00 in
15:31 60.6 °F 45.7 °F 29.89 in SSW 3.5 mph 11.5 mph 58 % 0.00 in
15:36 60.9 °F 46.0 °F 29.89 in SW 6.7 mph 6.9 mph 58 % 0.00 in
15:41 61.1 °F 46.2 °F 29.88 in SSW 6.3 mph 6.9 mph 58 % 0.00 in
15:46 61.4 °F 46.0 °F 29.88 in SW 5.1 mph 15.0 mph 57 % 0.00 in
15:51 61.8 °F 45.9 °F 29.88 in South 6.7 mph 11.5 mph 56 % 0.00 in
15:57 62.0 °F 46.1 °F 29.88 in WSW 7.2 mph 11.5 mph 56 % 0.00 in
16:02 62.1 °F 46.2 °F 29.89 in SW 9.6 mph 15.0 mph 56 % 0.00 in
16:07 62.2 °F 46.3 °F 29.89 in SSW 4.3 mph 12.7 mph 56 % 0.00 in
16:12 62.2 °F 46.3 °F 29.88 in West 4.4 mph 10.4 mph 56 % 0.00 in
16:17 62.2 °F 46.3 °F 29.88 in SW 9.1 mph 13.8 mph 56 % 0.00 in
16:22 62.1 °F 46.7 °F 29.88 in SSW 6.6 mph 9.2 mph 57 % 0.00 in
16:27 62.0 °F 47.0 °F 29.87 in WSW 5.4 mph 8.1 mph 58 % 0.00 in
16:32 62.0 °F 46.6 °F 29.87 in SW 6.2 mph 11.5 mph 57 % 0.00 in
16:37 62.0 °F 46.6 °F 29.87 in SW 3.8 mph 6.9 mph 57 % 0.00 in
16:42 62.1 °F 47.1 °F 29.88 in SSW 5.7 mph 6.9 mph 58 % 0.00 in
16:47 62.0 °F 47.0 °F 29.87 in WSW 2.5 mph 11.5 mph 58 % 0.00 in
16:53 62.0 °F 47.0 °F 29.87 in SSW 2.9 mph 8.1 mph 58 % 0.00 in
16:58 61.9 °F 47.0 °F 29.87 in SE 1.1 mph 3.5 mph 58 % 0.00 in
17:03 61.8 °F 46.9 °F 29.87 in SW 5.5 mph 7.0 mph 58 % 0.00 in
17:08 61.8 °F 46.9 °F 29.86 in South 2.1 mph 8.1 mph 58 % 0.00 in
17:12 61.7 °F 47.2 °F 29.86 in WSW 2.2 mph 8.1 mph 59 % 0.00 in
17:17 61.5 °F 47.0 °F 29.86 in SW 3.3 mph 6.9 mph 59 % 0.00 in
17:22 61.4 °F 47.4 °F 29.86 in SW 3.9 mph 5.8 mph 60 % 0.00 in
17:27 61.3 °F 47.3 °F 29.86 in SSW 2.5 mph 6.9 mph 60 % 0.00 in
17:32 61.2 °F 47.6 °F 29.86 in SW 1.1 mph 2.3 mph 61 % 0.00 in
17:38 61.1 °F 47.5 °F 29.86 in SW 3.4 mph 8.1 mph 61 % 0.00 in
17:43 60.9 °F 47.8 °F 29.86 in SW 2.1 mph 3.5 mph 62 % 0.00 in
17:48 60.8 °F 47.7 °F 29.86 in WSW 1.8 mph 3.5 mph 62 % 0.00 in
17:53 60.7 °F 48.0 °F 29.85 in SW 2.5 mph 6.9 mph 63 % 0.00 in
17:58 60.5 °F 48.3 °F 29.85 in SW 2.4 mph 3.5 mph 64 % 0.00 in
18:03 60.4 °F 48.6 °F 29.85 in SW 4.6 mph 7.0 mph 65 % 0.00 in
18:08 60.3 °F 48.5 °F 29.85 in SW 3.3 mph 4.0 mph 65 % 0.00 in
18:13 60.1 °F 48.7 °F 29.86 in SW 3.0 mph 3.5 mph 66 % 0.00 in
18:18 60.0 °F 49.0 °F 29.86 in SSW 2.5 mph 5.8 mph 67 % 0.00 in
18:23 59.9 °F 49.3 °F 29.86 in SSW 1.6 mph 2.3 mph 68 % 0.00 in
18:29 59.8 °F 50.0 °F 29.85 in SSW 1.2 mph 4.6 mph 70 % 0.00 in
18:34 59.8 °F 50.4 °F 29.85 in SSW 2.9 mph 4.6 mph 71 % 0.00 in
18:39 59.8 °F 50.8 °F 29.85 in WSW 2.1 mph 4.6 mph 72 % 0.00 in
18:44 59.7 °F 51.0 °F 29.86 in SW 0.8 mph 6.0 mph 73 % 0.00 in
18:49 59.6 °F 51.3 °F 29.85 in SW 2.9 mph 6.9 mph 74 % 0.00 in
18:54 59.6 °F 51.7 °F 29.85 in SW 1.8 mph 3.5 mph 75 % 0.00 in
18:59 59.5 °F 51.9 °F 29.86 in WSW 0.7 mph 2.3 mph 76 % 0.00 in
19:04 59.5 °F 51.9 °F 29.85 in SW 0.6 mph 1.2 mph 76 % 0.00 in
19:09 59.4 °F 51.8 °F 29.85 in SW 0.4 mph 2.3 mph 76 % 0.00 in
19:14 59.4 °F 51.8 °F 29.85 in SW 1.3 mph 3.5 mph 76 % 0.00 in
19:20 59.3 °F 52.1 °F 29.86 in SSW 1.6 mph 3.5 mph 77 % 0.00 in
19:25 59.3 °F 51.7 °F 29.86 in SSW 2.2 mph 5.8 mph 76 % 0.00 in
19:30 59.2 °F 51.6 °F 29.86 in SW 0.7 mph 3.0 mph 76 % 0.00 in
19:35 59.2 °F 51.6 °F 29.86 in WSW 0.7 mph 2.3 mph 76 % 0.00 in
19:40 59.2 °F 51.3 °F 29.86 in WSW 2.2 mph 4.6 mph 75 % 0.00 in
19:45 59.2 °F 51.3 °F 29.86 in WSW 1.9 mph 5.0 mph 75 % 0.00 in
19:50 59.3 °F 51.4 °F 29.86 in SSW 1.2 mph 4.6 mph 75 % 0.00 in
19:55 59.4 °F 51.1 °F 29.86 in SW 3.0 mph 5.8 mph 74 % 0.00 in
20:00 59.6 °F 51.3 °F 29.86 in WSW 4.5 mph 6.9 mph 74 % 0.00 in
20:05 59.8 °F 51.1 °F 29.86 in SW 3.0 mph 8.0 mph 73 % 0.00 in
20:10 60.0 °F 51.3 °F 29.86 in SW 2.0 mph 7.0 mph 73 % 0.00 in
20:15 60.2 °F 51.1 °F 29.86 in SW 3.0 mph 9.0 mph 72 % 0.00 in
20:20 60.4 °F 51.3 °F 29.86 in SW 2.0 mph 6.0 mph 72 % 0.00 in
20:25 60.6 °F 51.1 °F 29.86 in SW 2.0 mph 7.0 mph 71 % 0.00 in
20:30 60.8 °F 51.3 °F 29.86 in SW 6.0 mph 12.0 mph 71 % 0.00 in
20:35 61.0 °F 51.5 °F 29.86 in SW 5.0 mph 9.0 mph 71 % 0.00 in
20:40 61.2 °F 51.7 °F 29.86 in SW 5.0 mph 7.0 mph 71 % 0.00 in
20:45 61.3 °F 51.4 °F 29.86 in SW 5.0 mph 7.0 mph 70 % 0.00 in
20:50 61.4 °F 51.5 °F 29.86 in SW 5.0 mph 8.0 mph 70 % 0.00 in
20:55 61.6 °F 51.7 °F 29.86 in SSW 6.0 mph 13.0 mph 70 % 0.00 in
21:00 61.6 °F 51.3 °F 29.86 in SSW 3.5 mph 6.0 mph 69 % 0.00 in
21:05 61.8 °F 51.5 °F 29.86 in SW 5.0 mph 12.0 mph 69 % 0.00 in
21:10 61.9 °F 51.6 °F 29.86 in SW 3.0 mph 10.0 mph 69 % 0.00 in
21:15 62.0 °F 51.7 °F 29.86 in SW 2.0 mph 7.0 mph 69 % 0.00 in
21:20 62.0 °F 51.7 °F 29.86 in SW 3.0 mph 6.0 mph 69 % 0.00 in
21:25 62.1 °F 51.8 °F 29.86 in SSW 5.0 mph 8.0 mph 69 % 0.00 in
21:30 62.2 °F 51.9 °F 29.86 in SW 5.0 mph 9.0 mph 69 % 0.00 in
21:35 62.2 °F 51.5 °F 29.87 in SW 3.0 mph 8.0 mph 68 % 0.00 in
21:40 62.3 °F 52.0 °F 29.86 in SW 5.0 mph 12.0 mph 69 % 0.00 in
21:45 62.5 °F 51.8 °F 29.86 in SSW 2.0 mph 9.0 mph 68 % 0.00 in
21:50 62.5 °F 51.8 °F 29.86 in SW 8.0 mph 12.0 mph 68 % 0.00 in
21:55 62.7 °F 52.0 °F 29.86 in SW 6.0 mph 9.0 mph 68 % 0.00 in
22:00 62.9 °F 52.2 °F 29.86 in WSW 7.1 mph 10.4 mph 68 % 0.00 in
22:05 63.1 °F 52.4 °F 29.86 in SW 6.0 mph 13.0 mph 68 % 0.00 in
22:10 63.3 °F 52.5 °F 29.86 in SW 7.0 mph 18.0 mph 68 % 0.00 in
22:15 63.4 °F 52.7 °F 29.86 in SW 7.0 mph 13.0 mph 68 % 0.00 in
22:20 63.7 °F 52.9 °F 29.86 in SW 7.5 mph 10.4 mph 68 % 0.00 in
22:25 63.8 °F 53.0 °F 29.86 in WSW 9.0 mph 14.0 mph 68 % 0.00 in
22:30 64.0 °F 53.2 °F 29.86 in WSW 6.0 mph 14.0 mph 68 % 0.00 in
22:35 64.2 °F 53.4 °F 29.86 in WSW 5.0 mph 17.0 mph 68 % 0.00 in
22:40 64.3 °F 53.1 °F 29.86 in SW 5.0 mph 12.0 mph 67 % 0.00 in
22:45 64.4 °F 53.2 °F 29.86 in WSW 3.0 mph 12.0 mph 67 % 0.00 in
22:50 64.5 °F 53.3 °F 29.87 in WSW 4.0 mph 8.0 mph 67 % 0.00 in
22:55 64.6 °F 53.4 °F 29.86 in SW 6.0 mph 13.0 mph 67 % 0.00 in
23:00 64.6 °F 53.4 °F 29.87 in WSW 2.4 mph 5.8 mph 67 % 0.00 in
23:05 64.6 °F 53.8 °F 29.87 in WSW 6.0 mph 10.0 mph 68 % 0.00 in
23:10 64.7 °F 53.9 °F 29.86 in WSW 5.0 mph 9.0 mph 68 % 0.00 in
23:20 64.6 °F 53.8 °F 29.86 in SW 4.2 mph 5.8 mph 68 % 0.00 in
23:25 64.6 °F 53.8 °F 29.86 in SW 5.0 mph 12.0 mph 68 % 0.00 in
23:30 64.6 °F 53.8 °F 29.86 in SW 6.0 mph 15.0 mph 68 % 0.00 in
23:35 64.5 °F 53.7 °F 29.86 in SSW 5.1 mph 8.1 mph 68 % 0.00 in
23:40 64.5 °F 53.7 °F 29.86 in SW 3.0 mph 9.0 mph 68 % 0.00 in
23:45 64.5 °F 54.1 °F 29.86 in SW 6.0 mph 10.0 mph 69 % 0.00 in
23:50 64.4 °F 54.0 °F 29.86 in SW 2.4 mph 4.6 mph 69 % 0.00 in
23:55 64.3 °F 53.9 °F 29.85 in SW 6.0 mph 9.0 mph 69 % 0.00 in
Crab Meadow Weather
Compliments of Weather Underground - 3 mb

Script developed by  Jim McMurry - jmcmurry@mwt.net Adapted for the template by  Wim van der Kuil - Leuven-Template.eu

Weather Terms: Freezing Rain/Freezing Drizzle - Rain or drizzle which falls in liquid form and freezes on impact with cold surfaces to form a glaze on the ground and exposed objects.